sat.trackr.live / text

‹ back to catalog

STARLINK-1545

NORAD 46156 · 2020-057AR

PAYLOAD ACTIVE UNKNOWN

§ Identity

Operator
Country
US
Launch date
2020-08-18
Launch site
AFETR
Launch vehicle
Mass (kg)
RCS (m²)

Purposes: comms

External: N2YO · Heavens-Above · Gunter

§ Orbital elements

Epoch: 2026-05-24T23:59:17.193120Z

Period
91.24 min
Inclination
53.0398°
Eccentricity
0.0005233
Mean motion
15.78238837 rev/d
Perigee alt
331.9 km
Apogee alt
338.9 km
Semi-major
6,713.6 km
B*
8.0231e-4
RAAN
241.0980°
Arg perigee
307.8827°
Mean anomaly
52.1720°
Rev number
32,012

§ Raw data

STARLINK-15451 46156U 20057AR  26144.99950455  .00142257  00000+0  80231-3 0  99962 46156  53.0398 241.0980 0005233 307.8827  52.1720 15.78238837320121

JSON: /api/v1/satellites/46156 · /tle

For live sub-satellite position, see the globe view (requires WebGL).

§ Visibility from observer

Set your observer location to see the next 7 days of passes ≥ 10°. The values pass through the URL so the page stays shareable.

No JS? Fill the form by hand. The geolocation button needs JavaScript.